Stations météo

Publicité
Aurillac, France (7549): Température de l'air & dewpoint: 14.09.2020 23:00:00 - 20.09.2020 23:00:00 (CEST)Aurillac, France (7549): Température de l'air 5cm: 14.09.2020 23:00:00 - 20.09.2020 23:00:00 (CEST)Aurillac, France (7549): Température de l'air -20cm & Température de l'air -100cm: 14.09.2020 23:00:00 - 20.09.2020 23:00:00 (CEST)Aurillac, France (7549): Vitesse du vent & gusts: 14.09.2020 23:00:00 - 20.09.2020 23:00:00 (CEST)Aurillac, France (7549): Direction du vent: 14.09.2020 23:00:00 - 20.09.2020 23:00:00 (CEST)Aurillac, France (7549): reduced air pressure: 14.09.2020 23:00:00 - 20.09.2020 23:00:00 (CEST)Aurillac, France (7549): visibility: 14.09.2020 23:00:00 - 20.09.2020 23:00:00 (CEST)Aurillac, France (7549): Ensoleillement: 14.09.2020 23:00:00 - 20.09.2020 23:00:00 (CEST)Aurillac, France (7549): Quantités de précipitations: 14.09.2020 23:00:00 - 20.09.2020 23:00:00 (CEST)
Date & Time tt [°C] td [°C] tt 5cm [°C] tt -20cm [°C] tt -100cm [°C] ff [km/h] ff [knt] fx [km/h] fx [knt] dd ppp [hPa] vv [km] sd [min] rr [mm]
20.09.2020 23:00:00 14,6 13,8 12,5 18,7 17,0 5 3 8 4 E 1016,7 43 0 0,0
20.09.2020 22:00:00 15,7 14,2 13,9 18,7 17,1 4 2 10 5 E 1016,2 56 0 0,0
20.09.2020 21:00:00 16,5 14,1 14,8 18,6 17,1 3 1 6 3 SW 1015,6 60 0 0,0
20.09.2020 20:00:00 17,2 13,7 15,9 18,6 17,1 4 2 13 7 SW 1014,7 9 6 0,0
20.09.2020 19:00:00 19,5 13,4 20,7 18,5 17,1 6 3 17 9 WSW 1013,7 60 53 0,0
20.09.2020 18:00:00 20,2 13,9 20,7 18,4 17,1 6 4 20 11 SW 1013,5 60 38 0,0
20.09.2020 17:00:00 19,9 14,0 20,3 18,3 17,1 9 5 17 9 SW 1013,5 60 29 0,0
20.09.2020 16:00:00 19,0 14,0 19,4 18,3 17,1 7 4 17 9 SSW 1013,9 60 12 0,0
20.09.2020 15:00:00 18,2 14,9 16,0 18,3 17,1 9 5 19 10 SE 1014,5 24 0 0,8
20.09.2020 14:00:00 18,4 13,0 20,2 18,3 17,1 7 4 17 9 S 1014,8 20 20 0,0
20.09.2020 13:00:00 18,3 14,4 17,9 18,3 17,1 8 5 16 8 SE 1015,0 20 13 0,0
20.09.2020 12:00:00 16,7 14,3 18,1 18,4 17,1 6 4 15 8 ESE 1015,5 60 0 0,0
20.09.2020 11:00:00 16,1 14,6 15,8 18,4 17,1 5 3 9 5 SSE 1015,4 19 0 0,0
20.09.2020 10:00:00 15,0 14,0 15,6 18,5 17,1 4 2 9 5 ENE 1015,6 60 0 0,0
20.09.2020 09:00:00 14,5 13,9 13,7 18,7 17,0 5 3 11 6 ESE 1015,4 60 0 0,0
20.09.2020 08:00:00 13,9 13,4 13,5 18,7 17,1 5 3 15 8 S 1015,3 0,8 0 0,0
20.09.2020 07:00:00 13,9 13,4 13,4 18,8 17,1 11 6 16 9 E 1014,9 43 0 1,2
20.09.2020 06:00:00 13,8 13,3 13,4 18,8 17,1 6 4 11 6 SE 1014,9 17 0 1,0
20.09.2020 05:00:00 14,3 13,7 13,8 18,9 17,1 5 3 11 6 ESE 1014,7 4,1 0 1,2
20.09.2020 04:00:00 14,5 13,4 13,6 19,0 17,1 6 4 10 5 ENE 1014,9 52 0 0,0
20.09.2020 03:00:00 14,5 13,2 12,7 19,1 17,1 5 3 15 8 SE 1014,9 59 0 0,0
20.09.2020 02:00:00 13,4 12,8 11,6 19,1 17,1 6 4 11 6 SE 1014,6 20 0 0,0
20.09.2020 01:00:00 14,2 13,4 12,5 19,2 17,1 3 2 12 6 S 1014,1 53 0 0,0
20.09.2020 00:00:00 14,9 13,6 13,5 19,3 17,1 6 3 13 7 ENE 1013,5 60 0 0,4
19.09.2020 23:00:00 15,3 13,3 14,0 19,3 17,1 8 5 26 14 NNW 1014,4 45 0 0,0
19.09.2020 22:00:00 15,4 13,1 13,9 19,3 17,1 15 8 24 13 E 1013,5 52 0 0,6
19.09.2020 21:00:00 15,9 12,8 14,0 19,3 17,1 15 8 36 19 ESE 1013,0 41 0 0,2
19.09.2020 20:00:00 16,3 12,6 15,6 19,3 17,1 16 9 34 19 E 1012,4 60 0 0,0
19.09.2020 19:00:00 17,4 13,5 17,0 19,3 17,1 22 12 34 19 E 1012,4 60 7 0,0
19.09.2020 18:00:00 19,6 13,8 19,7 19,3 17,1 22 12 40 21 E 1010,4 55 30 0,0
19.09.2020 17:00:00 20,3 14,2 20,6 19,3 17,1 19 10 34 18 E 1010,7 60 42 0,0
19.09.2020 16:00:00 20,2 15,0 17,2 19,3 17,1 19 10 34 19 E 1011,5 40 41 0,0
19.09.2020 15:00:00 16,6 14,6 15,1 19,3 17,1 16 9 25 13 E 1013,2 53 0 1,9
19.09.2020 14:00:00 15,9 14,1 14,9 19,2 17,1 8 4 46 25 E 1013,7 3,9 0 2,4
19.09.2020 13:00:00 21,2 14,8 21,2 19,3 17,1 20 11 38 20 SE 1012,1 18 14 0,0
19.09.2020 12:00:00 23,0 16,1 20,1 19,3 17,1 16 8 29 15 ESE 1012,2 47 6 0,0
19.09.2020 11:00:00 21,1 15,0 20,0 19,3 17,1 10 5 28 15 ESE 1012,7 54 0 0,0
19.09.2020 10:00:00 20,0 14,1 16,9 19,4 17,1 16 8 27 15 E 1013,0 52 0 0,0
19.09.2020 09:00:00 19,3 13,9 18,1 19,4 17,1 13 7 35 19 E 1012,8 47 18 0,0
19.09.2020 08:00:00 19,0 13,6 17,7 19,5 17,1 22 12 37 20 SE 1012,6 50 0 0,0
19.09.2020 07:00:00 18,9 13,5 17,5 19,6 17,1 19 10 34 18 SE 1012,7 41 0 0,0
19.09.2020 06:00:00 18,7 12,7 16,8 19,6 17,1 15 8 32 18 SE 1013,0 42 0 0,0
19.09.2020 05:00:00 18,9 12,6 17,0 19,6 17,1 16 9 36 19 SE 1013,1 38 0 0,0
19.09.2020 04:00:00 20,3 13,0 19,4 19,7 17,1 22 12 44 24 SE 1013,1 37 0 0,0
19.09.2020 03:00:00 20,4 12,6 19,5 19,7 17,1 22 12 50 27 SE 1013,0 38 0 0,0
19.09.2020 02:00:00 20,5 13,0 19,1 19,7 17,1 29 15 58 31 SE 1012,9 36 0 0,0
19.09.2020 01:00:00 20,7 12,4 19,9 19,7 17,0 25 13 56 30 SE 1013,3 36 0 0,0
19.09.2020 00:00:00 21,3 12,2 20,4 19,7 17,1 25 13 51 28 SE 1013,2 40 0 0,0
18.09.2020 23:00:00 21,5 12,3 20,3 19,7 17,1 25 14 48 26 SE 1013,6 42 0 0,0
18.09.2020 22:00:00 21,5 12,3 19,8 19,6 17,1 19 11 38 21 ESE 1013,5 44 0 0,0
18.09.2020 21:00:00 21,6 13,2 19,4 19,6 17,1 19 10 43 23 ESE 1013,7 37 0 0,0
18.09.2020 20:00:00 21,3 14,2 17,5 19,5 17,0 22 12 43 23 ESE 1013,8 32 0 0,0
18.09.2020 19:00:00 23,0 13,5 22,3 19,4 17,1 22 12 51 27 SSE 1013,8 35 0 0,0
18.09.2020 18:00:00 23,9 13,4 23,7 19,2 17,1 26 14 50 27 SSE 1013,5 31 0 0,0
18.09.2020 17:00:00 25,3 13,2 26,0 19,1 17,1 26 14 55 30 SE 1013,1 37 13 0,0
18.09.2020 16:00:00 26,6 12,6 28,4 19,0 17,1 29 16 57 31 SSE 1012,6 23 50 0,0
18.09.2020 15:00:00 27,8 13,0 31,1 18,9 17,1 29 15 57 31 SSE 1012,2 19 60 0,0
18.09.2020 14:00:00 27,0 12,2 29,9 18,9 17,1 29 16 57 31 S 1012,6 20 60 0,0
18.09.2020 13:00:00 27,2 11,6 29,4 18,9 17,0 33 18 72 39 SE 1012,8 20 60 0,0
18.09.2020 12:00:00 26,0 11,7 28,2 18,9 17,1 34 18 74 40 SSE 1013,1 39 60 0,0
18.09.2020 11:00:00 24,7 11,3 26,5 19,0 17,0 33 18 56 30 SE 1013,2 54 60 0,0
18.09.2020 10:00:00 23,5 11,5 22,5 19,1 17,0 18 10 34 18 ESE 1013,1 60 57 0,0
18.09.2020 09:00:00 20,8 11,4 17,0 19,2 17,1 14 8 24 13 E 1013,7 60 60 0,0
18.09.2020 08:00:00 18,3 10,6 15,4 19,3 17,0 16 8 24 13 E 1014,2 45 6 0,0
18.09.2020 07:00:00 18,0 10,8 14,6 19,4 17,0 16 9 24 13 E 1014,1 45 0 0,0
18.09.2020 06:00:00 18,0 11,1 14,7 19,5 17,1 13 7 22 12 E 1014,2 42 0 0,0
18.09.2020 05:00:00 17,8 11,4 12,8 19,6 17,0 16 9 23 12 E 1014,1 41 0 0,0
18.09.2020 04:00:00 18,1 10,9 11,6 19,7 17,0 10 6 16 8 E 1014,7 41 0 0,0
18.09.2020 03:00:00 18,2 11,7 13,2 19,7 17,0 12 6 16 8 ENE 1015,2 40 0 0,0
18.09.2020 02:00:00 19,4 11,4 14,1 19,8 17,0 10 5 15 8 E 1015,3 49 0 0,0
18.09.2020 01:00:00 19,4 10,9 14,6 19,8 17,1 10 5 14 8 ENE 1015,1 54 0 0,0
18.09.2020 00:00:00 20,1 10,8 15,2 19,8 17,1 11 6 18 10 E 1015,1 55 0 0,0
17.09.2020 23:00:00 20,8 10,9 15,7 19,8 17,0 8 4 29 15 E 1014,9 55 0 0,0
17.09.2020 22:00:00 22,1 10,6 17,2 19,7 17,0 15 8 24 13 ENE 1014,6 59 0 0,0
17.09.2020 21:00:00 21,8 10,9 15,7 19,6 17,0 9 5 15 8 E 1014,3 46 0 0,0
17.09.2020 20:00:00 23,9 11,6 18,7 19,5 17,0 6 3 22 12 ESE 1013,4 19 35 0,0
17.09.2020 19:00:00 27,0 11,1 26,5 19,3 17,0 15 8 29 16 ENE 1012,3 59 60 0,0
17.09.2020 18:00:00 28,3 10,0 29,6 19,1 17,0 19 10 31 17 E 1012,1 60 60 0,0
17.09.2020 17:00:00 29,1 10,2 31,6 18,9 17,0 19 10 36 19 E 1012,3 60 60 0,0
17.09.2020 16:00:00 28,9 10,5 32,3 18,8 17,0 23 12 39 21 E 1012,6 47 60 0,0
17.09.2020 15:00:00 29,1 10,2 33,2 18,7 17,0 22 12 39 21 E 1013,1 55 60 0,0
17.09.2020 14:00:00 28,7 8,9 32,8 18,6 17,0 17 9 32 17 E 1013,9 58 60 0,0
17.09.2020 13:00:00 28,4 8,6 31,5 18,7 17,0 19 10 34 18 E 1014,2 58 60 0,0
17.09.2020 12:00:00 27,2 10,4 29,9 18,7 17,0 10 6 22 12 ENE 1015,0 54 60 0,0
17.09.2020 11:00:00 23,4 14,7 23,3 18,8 17,0 0 0 10 5 N 1016,0 42 60 0,0
17.09.2020 10:00:00 18,1 13,2 16,7 18,9 17,0 5 3 8 4 E 1017,5 38 60 0,0
17.09.2020 09:00:00 14,1 12,3 10,2 19,1 17,0 5 3 11 6 E 1019,0 19 60 0,0
17.09.2020 08:00:00 11,4 10,8 7,7 19,2 17,0 6 3 10 6 E 1019,7 12 7 0,0
17.09.2020 07:00:00 10,5 9,7 7,3 19,3 17,0 6 3 9 5 ENE 1019,8 11 0 0,0
17.09.2020 06:00:00 11,3 10,7 7,7 19,5 17,0 3 2 7 4 E 1019,4 14 0 0,0
17.09.2020 05:00:00 11,7 11,1 8,0 19,5 17,0 6 3 10 5 E 1019,5 9 0 0,0
17.09.2020 04:00:00 12,0 11,1 7,9 19,6 17,0 4 2 9 5 E 1019,6 13 0 0,0
17.09.2020 03:00:00 12,2 11,3 8,1 19,8 17,0 6 3 13 7 SE 1019,9 11 0 0,0
17.09.2020 02:00:00 13,0 12,1 9,2 19,8 17,0 7 4 10 5 E 1020,0 16 0 0,0
17.09.2020 01:00:00 13,2 12,1 10,1 19,9 17,0 4 2 12 6 E 1020,5 15 0 0,0
17.09.2020 00:00:00 14,2 12,6 10,2 19,8 17,0 6 3 9 5 ESE 1020,3 24 0 0,0
16.09.2020 23:00:00 15,7 13,4 10,8 19,8 17,0 4 2 7 4 ENE 1019,9 36 0 0,0
16.09.2020 22:00:00 17,0 14,5 12,5 19,8 17,0 4 2 14 8 E 1019,4 44 0 0,0
16.09.2020 21:00:00 18,7 14,4 16,0 19,7 17,0 8 5 14 8 N 1018,8 60 0 0,0
16.09.2020 20:00:00 20,5 15,1 19,3 19,5 17,0 12 6 16 9 NE 1017,9 58 24 0,0
16.09.2020 19:00:00 23,3 13,7 23,1 19,3 17,0 4 2 18 10 NNW 1017,2 60 29 0,0
16.09.2020 18:00:00 23,4 14,4 23,4 19,2 17,0 11 6 23 13 N 1017,2 60 30 0,0
16.09.2020 17:00:00 22,4 15,3 24,2 19,0 17,0 12 7 31 17 E 1017,4 55 37 0,0
16.09.2020 16:00:00 24,0 13,5 25,3 18,9 17,0 21 12 51 28 NE 1017,1 20 45 0,0
16.09.2020 15:00:00 27,4 12,2 29,8 18,8 17,0 19 10 31 17 ENE 1016,8 18 42 0,0
16.09.2020 14:00:00 28,2 12,9 30,9 18,7 17,0 11 6 20 11 NNW 1016,7 60 60 0,0
16.09.2020 13:00:00 26,3 13,4 29,5 18,7 17,0 9 5 20 11 NW 1017,8 44 37 0,0
16.09.2020 12:00:00 25,8 14,0 27,7 18,8 17,0 7 4 15 8 WNW 1018,3 20 60 0,0
16.09.2020 11:00:00 23,3 13,7 22,9 18,9 17,0 4 2 9 5 W 1019,2 20 60 0,0
16.09.2020 10:00:00 19,1 13,1 17,7 18,9 16,9 3 1 10 6 E 1020,4 27 3 0,0
16.09.2020 09:00:00 16,4 12,4 12,4 19,1 17,0 7 4 10 5 E 1020,9 29 58 0,0
16.09.2020 08:00:00 12,6 10,8 9,3 19,2 17,0 4 2 7 4 SE 1021,8 13 7 0,0
16.09.2020 07:00:00 12,2 10,8 9,0 19,3 17,0 5 3 8 4 E 1021,7 17 0 0,0
16.09.2020 06:00:00 12,5 10,7 9,7 19,4 17,0 6 3 11 6 ESE 1021,7 18 0 0,0
16.09.2020 05:00:00 13,4 10,9 10,6 19,5 17,0 3 2 15 8 ESE 1021,6 17 0 0,0
16.09.2020 04:00:00 14,8 11,2 12,9 19,5 17,0 11 6 21 11 E 1021,4 31 0 0,0
16.09.2020 03:00:00 15,5 11,7 12,9 19,6 17,0 15 8 20 11 E 1021,4 34 0 0,0
16.09.2020 02:00:00 14,7 12,0 12,0 19,7 17,0 10 5 13 7 E 1021,7 20 0 0,0
16.09.2020 01:00:00 15,5 12,3 12,7 19,7 17,0 7 4 17 9 E 1021,7 29 0 0,0
16.09.2020 00:00:00 16,2 12,4 12,7 19,7 17,0 5 3 9 5 E 1021,4 20 0 0,0
15.09.2020 23:00:00 16,8 12,7 13,9 19,6 17,0 4 2 16 8 ESE 1021,2 29 0 0,0
15.09.2020 22:00:00 18,4 13,3 13,2 19,6 17,0 8 4 13 7 E 1020,6 37 0 0,0
15.09.2020 21:00:00 20,0 12,7 15,4 19,4 17,0 5 3 8 4 NE 1019,7 36 0 0,0
15.09.2020 20:00:00 24,5 12,1 18,2 19,2 17,0 3 1 7 4 W 1018,0 38 36 0,0
15.09.2020 19:00:00 27,4 13,0 28,7 19,0 17,0 4 2 16 9 WSW 1017,2 59 60 0,0
15.09.2020 18:00:00 27,9 11,9 30,6 18,8 17,0 4 2 15 8 NNE 1017,0 53 60 0,0
15.09.2020 17:00:00 28,1 12,4 32,3 18,6 16,9 5 3 22 12 SSE 1017,2 52 60 0,0
15.09.2020 16:00:00 27,7 12,5 32,4 18,5 17,0 4 2 22 12 NNW 1017,8 41 60 0,0
15.09.2020 15:00:00 27,2 12,8 32,8 18,4 17,0 9 5 24 13 W 1018,3 42 60 0,0
15.09.2020 14:00:00 27,1 12,3 32,2 18,4 17,0 11 6 26 14 SSW 1018,8 60 60 0,0
15.09.2020 13:00:00 26,0 11,7 31,7 18,3 17,0 11 6 30 16 S 1019,5 20 60 0,0
15.09.2020 12:00:00 25,4 11,2 29,1 18,4 17,0 18 10 34 19 SE 1020,1 56 60 0,0
15.09.2020 11:00:00 24,4 10,3 27,7 18,5 17,0 14 8 28 15 SE 1020,4 60 60 0,0
15.09.2020 10:00:00 22,6 10,1 20,4 18,6 17,0 7 4 17 9 ESE 1020,6 53 60 0,0
15.09.2020 09:00:00 19,0 9,2 13,8 18,8 17,0 15 8 21 12 E 1021,3 60 60 0,0
15.09.2020 08:00:00 15,2 8,4 9,4 18,9 16,9 15 8 21 11 E 1022,0 49 9 0,0
15.09.2020 07:00:00 13,7 8,7 9,4 19,0 17,0 10 6 18 10 E 1022,1 49 0 0,0
15.09.2020 06:00:00 13,8 8,8 8,3 19,1 17,0 10 5 15 8 E 1022,1 44 0 0,0
15.09.2020 05:00:00 14,3 9,1 8,7 19,2 17,0 9 5 14 7 E 1022,0 43 0 0,0
15.09.2020 04:00:00 14,8 8,5 8,3 19,3 17,0 5 3 8 5 E 1022,1 56 0 0,0
15.09.2020 03:00:00 16,0 8,7 9,4 19,4 17,0 3 2 13 7 ENE 1022,0 54 0 0,0
15.09.2020 02:00:00 17,1 9,5 10,7 19,4 17,0 8 4 13 7 E 1021,7 45 0 0,0
15.09.2020 01:00:00 16,6 10,4 11,8 19,5 17,0 11 6 21 11 E 1022,0 36 0 0,0
15.09.2020 00:00:00 16,7 11,2 14,1 19,5 17,0 15 8 21 11 E 1022,1 32 0 0,0
14.09.2020 23:00:00 17,2 11,5 12,3 19,4 17,0 13 7 20 11 E 1022,2 33 0 0,0

tt = Température de l'air
td = dewpoint
tt 5cm = Température de l'air 5cm
tt -20cm = Température de l'air -20cm
tt -100cm = Température de l'air -100cm
ff = Vitesse du vent
fx = gusts
dd = Direction du vent
ppp = reduced air pressure
vv = visibility
sd = Ensoleillement
rr = Quantités de précipitations

stations d'obs. à proximité